Weather in Phan Rang–Thap Cham

Vietnam     11°33′50″N   109°00′38″E
temp.,
°C
wind,
m/s
gust,
m/s
humid.,
%
clouds,
%
prec.,
mm/h
press.,
hPa
HPBL,
m
12 april, mon
mon1201:00+25n3579100 0.1 1012232
04:00+24nnw3487100 1.8 1012155
07:00+25nnw357988 1.9 1014253
10:00+31ene455425 0.0 10141028
13:00+31e875513 0.0 10111121
16:00+30ene88635 0.0 1010872
19:00+27ne47807 0.1 1012417
22:00+26nne34862 0.4 1014229
13 april, tue
tue1301:00+25nnw2287100 0.5 1012118
04:00+25nnw238733 0.0 1011128
07:00+26nnw227830 0.0 1013306
10:00+31e435996 0.0 10131005
13:00+30ese76615 0.0 1010764
16:00+29ese556758 0.0 1009727
19:00+26e2380100 0.1 1011243
22:00+26ne1282100 0.0 1013181
14 april, wed
wed1401:00+25n2285100 0.0 1011103
04:00+24nne2287100 0.0 101097
07:00+26n2277100 0.0 1012279
10:00+30ese4258100 0.0 1012989
13:00+30ese7559100 0.0 1010772
16:00+29ese546288 0.0 1009860
19:00+26ese2375100 0.0 1010271
22:00+26ne117693 0.0 1011208
15 april, thu
thu1501:00+24n1280100 0.0 1010115
04:00+24nnw228390 0.0 101188
07:00+26nnw2173100 0.0 1012267
10:00+30ese435989 0.0 10121019
13:00+29ese7562100 0.0 1010717
16:00+28se5464100 0.0 1009786
19:00+26ese227229 0.0 1010180
22:00+25nne11754 0.0 1012188
16 april, fri
fri1601:00+24nnw11785 0.0 1011123
04:00+24nw11825 0.0 101194
07:00+26nnw22725 0.0 1012303
10:00+30ese545931 0.0 10121091
13:00+30ese7658100 0.0 1010857
16:00+29ese545951 0.0 1009847
19:00+26e2472100 0.0 1011306
22:00+25n22755 0.0 1013170